This demonstration page uses our WeatherBlox Daily Observations layout. Learn more.

Left ArrowRight Arrow

36.17497, -115.13722

Hourly Observations for September 10, 2016

Temp ( °F °C ) Dew Point ( °F °C ) Humidity (%) Winds ( mph kmh ) Pressure ( in mb ) Visibility ( mi km ) Precip ( " mm )
12:53 am 00:53 Clear 82 27.8 41 5 23 23 W 3 6 29.94 1014 10 16.0934 0 0
1:53 am 01:53 Clear 82 27.8 38 3.3 21 21 SW 7 11 29.94 1014 10 16.0934 0 0
2:53 am 02:53 Clear 83 28.3 34 1.1 17 17 S 5 7 29.94 1014 10 16.0934 0 0
3:53 am 03:53 Clear 77 25 37 2.8 24 24 NW 6 9 29.95 1014 10 16.0934 0 0
4:53 am 04:53 Clear 77 25 38 3.3 24 24 NW 5 7 29.97 1015 10 16.0934 0 0
5:53 am 05:53 Clear 75 23.9 38 3.3 26 26 Calm 29.99 1016 10 16.0934 0 0
6:53 am 06:53 Sunny 76 24.4 37 2.8 24 24 WNW 6 9 30.01 1016 10 16.0934 0 0
7:53 am 07:53 Sunny 79 26.1 38 3.3 23 23 Calm 30.03 1017 10 16.0934 0 0
8:53 am 08:53 Sunny 85 29.4 31 -0.6 14 14 SW 6 9 30.03 1017 10 16.0934 0 0
9:53 am 09:53 Sunny 88 31.1 33 0.6 14 14 Calm 30.04 1017 10 16.0934 0 0
10:53 am 10:53 Sunny 90 32.2 34 1.1 14 14 SE 5 7 30.04 1017 10 16.0934 0 0
11:53 am 11:53 Sunny 91 32.8 31 -0.6 12 12 Calm 30.03 1017 10 16.0934 0 0
12:53 pm 12:53 Sunny 95 35 30 -1.1 10 10 SE 3 6 30 1016 10 16.0934 0 0
1:53 pm 13:53 Sunny 97 36.1 29 -1.7 9 9 S 5 7 29.98 1015 10 16.0934 0 0
2:53 pm 14:53 Sunny 99 37.2 29 -1.7 8 8 SSE 5 7 29.95 1014 10 16.0934 0 0
3:53 pm 15:53 Sunny 100 37.8 30 -1.1 8 8 VRB 3 6 29.93 1014 10 16.0934 0 0
4:53 pm 16:53 Sunny 99 37.2 30 -1.1 9 9 VRB 5 7 29.92 1013 10 16.0934 0 0
5:53 pm 17:53 Sunny 99 37.2 30 -1.1 9 9 ESE 7 11 29.91 1013 10 16.0934 0 0
6:53 pm 18:53 Sunny 97 36.1 30 -1.1 9 9 SE 5 7 29.91 1013 10 16.0934 0 0
7:53 pm 19:53 Clear 93 33.9 31 -0.6 11 11 SE 5 7 29.93 1013 10 16.0934 0 0
8:53 pm 20:53 Clear 93 33.9 31 -0.6 11 11 Calm 29.94 1014 10 16.0934 0 0
9:53 pm 21:53 Clear 89 31.7 36 2.2 15 15 NNE 3 6 29.94 1014 10 16.0934 0 0
10:53 pm 22:53 Clear 87 30.6 38 3.3 18 18 SW 9 15 29.94 1014 10 16.0934 0 0
11:53 pm 23:53 Clear 86 30 36 2.2 17 17 Calm 29.93 1014 10 16.0934 0 0

Powered by AerisWeather